Location: ??
(34.9170°N, 135.5016°E)
Time: 11:13:31
(UTC+00:00)

Courier 1B Rocket - All Passes

Search period start: 07 March 2021 00:00
Search period end: 17 March 2021 00:00
Orbit: 920 x 1202 km, 28.2° (Epoch: 06 March)

Date Brightness Start Highest point End Pass type
(mag) Time Alt. Az. Time Alt. Az. Time Alt. Az.
07 Mar - 03:31:38 10° SSW 03:37:09 27° SSE 03:43:01 10° ESE daylight
07 Mar - 05:23:30 10° WSW 05:30:09 47° S 05:37:16 10° E daylight
07 Mar - 07:16:30 10° WSW 07:23:29 49° S 07:30:51 10° ESE daylight
07 Mar - 09:10:13 10° W 09:16:45 32° SSW 09:23:27 10° SE visible
07 Mar - 11:06:38 10° SW 11:09:41 13° SSW 11:12:45 10° S visible
08 Mar - 02:31:43 10° SSW 02:36:20 20° SSE 02:41:08 10° ESE daylight
08 Mar - 04:22:50 10° SW 04:29:07 41° SSE 04:35:52 10° E daylight
08 Mar - 06:15:32 10° WSW 06:22:20 51° S 06:29:37 10° ESE daylight
08 Mar - 08:08:55 10° W 08:15:38 38° SSW 08:22:40 10° SE daylight
08 Mar - 10:03:48 10° WSW 10:08:42 18° SSW 10:13:41 10° SSE visible
09 Mar - 01:32:31 10° S 01:35:34 14° SSE 01:38:40 10° ESE daylight
09 Mar - 03:22:20 10° SW 03:28:10 34° SSE 03:34:24 10° E daylight
09 Mar - 05:14:39 10° WSW 05:21:15 50° S 05:28:19 10° ESE daylight
09 Mar - 07:07:48 10° W 07:14:32 44° S 07:21:41 10° ESE daylight
09 Mar - 09:01:54 10° WSW 09:07:41 24° SSW 09:13:38 10° SSE daylight
10 Mar - 02:22:04 10° SSW 02:27:19 27° SSE 02:32:50 10° ESE daylight
10 Mar - 04:13:53 10° WSW 04:20:13 46° S 04:27:00 10° E daylight
10 Mar - 06:06:48 10° WSW 06:13:26 48° S 06:20:33 10° ESE daylight
10 Mar - 08:00:26 10° WSW 08:06:38 30° SSW 08:13:08 10° SE daylight
10 Mar - 09:56:56 10° SW 09:59:35 12° SSW 10:02:15 10° S visible
11 Mar - 01:22:09 10° SSW 01:26:32 19° SSE 01:31:02 10° ESE daylight
11 Mar - 03:13:15 10° SW 03:19:15 40° SSE 03:25:39 10° E daylight
11 Mar - 05:05:54 10° WSW 05:12:22 50° S 05:19:20 10° ESE daylight
11 Mar - 06:59:12 10° W 07:05:34 37° SSW 07:12:20 10° SE daylight
11 Mar - 08:54:03 10° WSW 08:58:35 17° SSW 09:03:16 10° S daylight
12 Mar - 00:22:57 10° S 00:25:47 13° SSE 00:28:39 10° SE daylight
12 Mar - 02:12:45 10° SW 02:18:22 33° SSE 02:24:16 10° E daylight
12 Mar - 04:05:04 10° WSW 04:11:21 49° S 04:18:05 10° ESE daylight
12 Mar - 05:58:09 10° W 06:04:32 42° S 06:11:22 10° ESE daylight
12 Mar - 07:52:12 10° WSW 07:57:36 23° SSW 08:03:15 10° SSE daylight
13 Mar - 01:12:29 10° SSW 01:17:33 26° SSE 01:22:48 10° ESE daylight
13 Mar - 03:04:19 10° WSW 03:10:23 45° S 03:16:50 10° ESE daylight
13 Mar - 04:57:12 10° WSW 05:03:31 46° S 05:10:17 10° ESE daylight
13 Mar - 06:50:47 10° WSW 06:56:36 29° SSW 07:02:46 10° SE daylight
13 Mar - 08:47:39 10° SW 08:49:31 11° SSW 08:51:24 10° SSW daylight
14 Mar - 00:12:31 10° SSW 00:16:47 19° SSE 00:21:07 10° ESE daylight
14 Mar - 02:03:41 10° SW 02:09:29 39° SSE 02:15:34 10° E daylight
14 Mar - 03:56:20 10° WSW 04:02:31 48° S 04:09:08 10° ESE daylight
14 Mar - 05:49:37 10° WSW 05:55:37 35° SSW 06:02:01 10° SE daylight
14 Mar - 07:44:30 10° WSW 07:48:34 16° SSW 07:52:46 10° S daylight
14 Mar - 23:13:13 10° S 23:16:03 13° SSE 23:18:53 10° SE daylight
15 Mar - 01:03:10 10° SW 01:08:39 33° SSE 01:14:17 10° ESE daylight
15 Mar - 02:55:31 10° WSW 03:01:34 47° S 03:07:58 10° ESE daylight
15 Mar - 04:48:35 10° W 04:54:39 40° SSW 05:01:07 10° SE daylight
15 Mar - 06:42:38 10° WSW 06:47:37 21° SSW 06:52:50 10° SSE daylight
16 Mar - 00:02:49 10° SW 00:07:51 26° SSE 00:12:56 10° ESE daylight
16 Mar - 01:54:45 10° WSW 02:00:39 44° S 02:06:48 10° ESE daylight
16 Mar - 03:47:39 10° WSW 03:53:42 44° S 04:00:06 10° ESE daylight
16 Mar - 05:41:14 10° WSW 05:46:41 27° SSW 05:52:27 10° SE daylight
16 Mar - 23:02:46 10° SSW 23:07:05 19° SSE 23:11:23 10° ESE daylight
